Starlink 11632

operational
NORAD ID: 63108 Int'l Des: 2025-039 Owner: SPXS Country: US Constellation: starlink
LEOCIRCULAR

About Starlink 11632

Description loading...

Live Position

Loading 3D Globe...

Upcoming Passes

Altitude History

Altitude vs Time

uPlot chart will show altitude changes over time

Two-Line Element Set

1 63108U 25039E 26034.48037058 .00219643 00000-0 16661-2 0 9994
2 63108 43.0018 83.1890 0002434 267.4911 92.5678 15.70900395 54238
Epoch: Feb 3, 2026 • Age: 8 hours

Current Status

Altitude 357.3 km
Velocity 7.70 km/s
Sub-Earth Point -10.92°S, 9.09°E
Launch Date Feb 27, 2025
Age 0.9 years
Type internet

Technical Details

Classification Payload
Mass 960.00 kg
Dry Mass 910.00 kg
Total Mass 960.00 kg
Length 0.30 m
Diameter 4.10 m
Span 29.00 m
Shape Box + pan
Manufacturer SPXS
Bus Type Starlink V2MD
Phase Status In Orbit
Owner/State SPXS/US

Large Constellations

Loading constellations...